SDM6325 ULLI-UMKK

Flight info

Callsign SDM6325
Flight time 1h 38m
Altitude 36000
Route UTETA1A/28R UTETA DCT PISIS DCT ARANS/N0453F360 DCT PIDIN DCT PISIM DCT PIRUX DCT PIVAX/N0441F370 DCT GARSO DCT AGONA DCT TURIP TURIP3G
Aircraft A319/M-SDE3FGHIRWY/LB1

Departure

Time 2026-05-03 20:27
Airport Pulkovo Airport (ULLI)

Arrival

Time 2026-05-03 22:06
Airport Khrabrovo Airport (UMKK)
Time Latitude Longitude Altitude Speed Heading
2026-05-03 20:15 59.79891 30.26703 82 ft 0 kts 111°
2026-05-03 20:17 59.79891 30.26701 82 ft 1 kts 111°
2026-05-03 20:17 59.79897 30.26672 87 ft 3 kts 109°
2026-05-03 20:18 59.79903 30.26634 86 ft 3 kts 96°
2026-05-03 20:18 59.79902 30.26597 87 ft 3 kts 50°
2026-05-03 20:18 59.79896 30.26585 85 ft 0 kts 17°
2026-05-03 20:20 59.79902 30.26589 87 ft 3 kts 17°
2026-05-03 20:21 59.79935 30.26609 84 ft 7 kts 17°
2026-05-03 20:21 59.80000 30.26647 83 ft 12 kts 17°
2026-05-03 20:21 59.80091 30.26700 82 ft 12 kts 14°
2026-05-03 20:21 59.80180 30.26753 83 ft 15 kts 17°
2026-05-03 20:22 59.80289 30.26817 82 ft 17 kts 17°
2026-05-03 20:22 59.80366 30.26863 82 ft 3 kts 17°
2026-05-03 20:22 59.80382 30.26899 86 ft 5 kts 71°
2026-05-03 20:22 59.80378 30.26974 82 ft 7 kts 108°
2026-05-03 20:23 59.80363 30.27075 82 ft 9 kts 105°
2026-05-03 20:23 59.80343 30.27213 85 ft 12 kts 107°
2026-05-03 20:23 59.80314 30.27406 83 ft 17 kts 107°
2026-05-03 20:23 59.80276 30.27659 81 ft 21 kts 107°
2026-05-03 20:24 59.80229 30.27970 84 ft 26 kts 107°
2026-05-03 20:24 59.80174 30.28336 80 ft 30 kts 107°
2026-05-03 20:24 59.80112 30.28750 73 ft 30 kts 107°
2026-05-03 20:24 59.80055 30.29128 73 ft 31 kts 106°
2026-05-03 20:25 59.79994 30.29558 78 ft 32 kts 106°
2026-05-03 20:25 59.79948 30.29853 77 ft 19 kts 105°
2026-05-03 20:25 59.79962 30.30076 75 ft 14 kts 56°
2026-05-03 20:25 59.80028 30.30213 77 ft 14 kts 47°
2026-05-03 20:26 59.80096 30.30304 76 ft 10 kts
2026-05-03 20:26 59.80123 30.30217 76 ft 8 kts 283°
2026-05-03 20:26 59.80140 30.30105 77 ft 11 kts 287°
2026-05-03 20:26 59.80225 30.29537 76 ft 80 kts 287°
2026-05-03 20:27 59.80447 30.28066 73 ft 141 kts 287°
2026-05-03 20:27 59.80756 30.25984 391 ft 160 kts 286°
2026-05-03 20:27 59.81056 30.23899 1067 ft 156 kts 285°
2026-05-03 20:27 59.81356 30.21798 1675 ft 160 kts 286°
2026-05-03 20:28 59.81670 30.19604 2125 ft 173 kts 284°
2026-05-03 20:28 59.82017 30.17188 2427 ft 196 kts 286°
2026-05-03 20:28 59.82433 30.14423 2779 ft 217 kts 286°
2026-05-03 20:28 59.82883 30.11434 3217 ft 239 kts 286°
2026-05-03 20:29 59.83360 30.08201 4037 ft 246 kts 283°
2026-05-03 20:29 59.83697 30.04864 4982 ft 247 kts 279°
2026-05-03 20:29 59.83983 30.01489 5920 ft 249 kts 278°
2026-05-03 20:29 59.84257 29.98079 6800 ft 251 kts 278°
2026-05-03 20:30 59.84529 29.94635 7646 ft 254 kts 278°
2026-05-03 20:30 59.84804 29.91149 8499 ft 257 kts 278°
2026-05-03 20:30 59.85081 29.87628 9353 ft 259 kts 278°
2026-05-03 20:30 59.85361 29.84064 10152 ft 263 kts 278°
2026-05-03 20:31 59.85656 29.80328 10463 ft 285 kts 278°
2026-05-03 20:31 59.85976 29.76298 10807 ft 302 kts 278°
2026-05-03 20:31 59.86308 29.72121 11485 ft 308 kts 278°
2026-05-03 20:31 59.86645 29.67891 12231 ft 311 kts 278°
2026-05-03 20:32 59.86982 29.63615 12988 ft 314 kts 278°
2026-05-03 20:32 59.87319 29.59302 13728 ft 317 kts 278°
2026-05-03 20:32 59.87657 29.54960 14386 ft 319 kts 278°
2026-05-03 20:32 59.87992 29.50636 15044 ft 321 kts 278°
2026-05-03 20:33 59.88333 29.46227 15717 ft 323 kts 278°
2026-05-03 20:33 59.88675 29.41792 16393 ft 325 kts 278°
2026-05-03 20:33 59.89017 29.37332 17060 ft 327 kts 278°
2026-05-03 20:33 59.89357 29.32843 17722 ft 329 kts 277°
2026-05-03 20:34 59.89697 29.28327 18354 ft 331 kts 277°
2026-05-03 20:34 59.90038 29.23789 18934 ft 332 kts 277°
2026-05-03 20:34 59.90378 29.19228 19543 ft 333 kts 277°
2026-05-03 20:34 59.90718 29.14658 20137 ft 334 kts 277°
2026-05-03 20:35 59.91061 29.10058 20736 ft 336 kts 277°
2026-05-03 20:35 59.91404 29.05459 21336 ft 337 kts 277°
2026-05-03 20:35 59.91749 29.00832 21934 ft 338 kts 277°
2026-05-03 20:35 59.92091 28.96186 22509 ft 339 kts 277°
2026-05-03 20:36 59.92430 28.91524 23060 ft 341 kts 277°
2026-05-03 20:36 59.92769 28.86835 23572 ft 342 kts 277°
2026-05-03 20:36 59.93107 28.82127 24010 ft 344 kts 277°
2026-05-03 20:36 59.93446 28.77393 24446 ft 345 kts 277°
2026-05-03 20:37 59.93779 28.72706 24862 ft 347 kts 277°
2026-05-03 20:37 59.94116 28.67939 25283 ft 348 kts 277°
2026-05-03 20:37 59.94454 28.63144 25697 ft 350 kts 277°
2026-05-03 20:37 59.94792 28.58322 26100 ft 352 kts 277°
2026-05-03 20:38 59.95131 28.53478 26504 ft 353 kts 277°
2026-05-03 20:38 59.95471 28.48608 26911 ft 355 kts 277°
2026-05-03 20:38 59.95811 28.43719 27325 ft 357 kts 277°
2026-05-03 20:38 59.96151 28.38796 27709 ft 359 kts 277°
2026-05-03 20:39 59.96490 28.33851 28094 ft 360 kts 277°
2026-05-03 20:39 59.96826 28.28887 28477 ft 362 kts 277°
2026-05-03 20:39 59.97161 28.23893 28849 ft 364 kts 277°
2026-05-03 20:39 59.97498 28.18871 29212 ft 366 kts 277°
2026-05-03 20:40 59.97837 28.13812 29570 ft 368 kts 277°
2026-05-03 20:40 59.98175 28.08746 29910 ft 369 kts 277°
2026-05-03 20:40 59.98507 28.03713 30195 ft 371 kts 277°
2026-05-03 20:40 59.98844 27.98589 30472 ft 373 kts 277°
2026-05-03 20:41 59.99180 27.93442 30750 ft 375 kts 277°
2026-05-03 20:41 59.99514 27.88265 31023 ft 376 kts 277°
2026-05-03 20:41 59.99846 27.83082 31403 ft 375 kts 277°
2026-05-03 20:41 60.00177 27.77921 31806 ft 374 kts 277°
2026-05-03 20:42 60.00506 27.72776 32197 ft 373 kts 277°
2026-05-03 20:42 60.00831 27.67645 32591 ft 371 kts 277°
2026-05-03 20:42 60.01151 27.62529 32985 ft 370 kts 277°
2026-05-03 20:42 60.01467 27.57430 33375 ft 369 kts 277°
2026-05-03 20:43 60.01777 27.52347 33770 ft 368 kts 277°
2026-05-03 20:43 60.02085 27.47269 34096 ft 367 kts 277°
2026-05-03 20:43 60.02394 27.42199 34347 ft 368 kts 277°
2026-05-03 20:43 60.02705 27.37169 34577 ft 370 kts 277°
2026-05-03 20:44 60.03023 27.31990 34802 ft 371 kts 277°
2026-05-03 20:44 60.03330 27.26922 35009 ft 373 kts 277°
2026-05-03 20:44 60.03639 27.21775 35215 ft 374 kts 277°
2026-05-03 20:44 60.03945 27.16599 35426 ft 375 kts 276°
2026-05-03 20:45 60.04245 27.11399 35611 ft 377 kts 276°
2026-05-03 20:45 60.04545 27.06189 35791 ft 378 kts 276°
2026-05-03 20:45 60.04772 27.00936 35850 ft 379 kts 271°
2026-05-03 20:46 60.04148 26.90448 35853 ft 382 kts 260°
2026-05-03 20:46 60.03004 26.80067 35855 ft 382 kts 260°
2026-05-03 20:47 60.01873 26.69671 35853 ft 382 kts 260°
2026-05-03 20:47 60.00734 26.59355 35854 ft 383 kts 260°
2026-05-03 20:48 59.99577 26.48979 35852 ft 383 kts 260°
2026-05-03 20:48 59.98411 26.38595 35856 ft 383 kts 260°
2026-05-03 20:49 59.97240 26.28226 35857 ft 383 kts 260°
2026-05-03 20:49 59.96059 26.17857 35856 ft 383 kts 259°
2026-05-03 20:50 59.94863 26.07490 35856 ft 383 kts 259°
2026-05-03 20:50 59.93670 25.97197 35856 ft 383 kts 259°
2026-05-03 20:51 59.92464 25.86842 35858 ft 384 kts 259°
2026-05-03 20:51 59.91247 25.76486 35855 ft 384 kts 259°
2026-05-03 20:52 59.90022 25.66131 35855 ft 384 kts 259°
2026-05-03 20:52 59.88787 25.55785 35857 ft 384 kts 259°
2026-05-03 20:53 59.87549 25.45448 35858 ft 384 kts 259°
2026-05-03 20:53 59.86312 25.35183 35857 ft 384 kts 259°
2026-05-03 20:54 59.85048 25.24860 35857 ft 384 kts 259°
2026-05-03 20:54 59.83142 25.09397 35857 ft 384 kts 259°
2026-05-03 20:55 59.81866 24.99097 35856 ft 384 kts 259°
2026-05-03 20:55 59.80576 24.88806 35856 ft 384 kts 259°
2026-05-03 20:56 59.79293 24.78576 35854 ft 384 kts 258°
2026-05-03 20:56 59.77993 24.68299 35858 ft 384 kts 258°
2026-05-03 20:57 59.76683 24.58032 35857 ft 384 kts 258°
2026-05-03 20:57 59.75356 24.47770 35860 ft 384 kts 258°
2026-05-03 20:58 59.73952 24.37546 35858 ft 385 kts 256°
2026-05-03 20:58 59.72388 24.27406 35864 ft 385 kts 256°
2026-05-03 20:59 59.70822 24.17344 35863 ft 385 kts 256°
2026-05-03 20:59 59.69265 24.07206 35868 ft 385 kts 256°
2026-05-03 21:00 59.68226 24.00424 35868 ft 385 kts 256°
2026-05-03 21:00 59.66146 23.86964 35867 ft 384 kts 256°
2026-05-03 21:01 59.64572 23.76865 35871 ft 384 kts 256°
2026-05-03 21:01 59.62987 23.66778 35878 ft 384 kts 256°
2026-05-03 21:02 59.61405 23.56755 35878 ft 384 kts 256°
2026-05-03 21:02 59.59809 23.46694 35875 ft 384 kts 256°
2026-05-03 21:03 59.58209 23.36650 35881 ft 384 kts 256°
2026-05-03 21:03 59.56597 23.26604 35877 ft 384 kts 255°
2026-05-03 21:04 59.54948 23.16592 35879 ft 385 kts 251°
2026-05-03 21:04 59.52683 23.06989 35883 ft 387 kts 249°
2026-05-03 21:05 59.50395 22.97468 35883 ft 387 kts 249°
2026-05-03 21:05 59.48085 22.87903 35881 ft 387 kts 249°
2026-05-03 21:06 59.45772 22.78359 35881 ft 387 kts 249°
2026-05-03 21:06 59.43449 22.68832 35884 ft 387 kts 249°
2026-05-03 21:07 59.41122 22.59309 35886 ft 386 kts 248°
2026-05-03 21:07 59.38787 22.49826 35888 ft 386 kts 248°
2026-05-03 21:08 59.36467 22.40408 35888 ft 386 kts 248°
2026-05-03 21:08 59.34125 22.30937 35887 ft 386 kts 248°
2026-05-03 21:09 59.31775 22.21490 35887 ft 386 kts 248°
2026-05-03 21:09 59.29411 22.12064 35885 ft 386 kts 248°
2026-05-03 21:10 59.27048 22.02655 35886 ft 385 kts 248°
2026-05-03 21:10 59.24685 21.93268 35888 ft 385 kts 248°
2026-05-03 21:11 59.22329 21.83951 35886 ft 385 kts 248°
2026-05-03 21:11 59.19946 21.74598 35890 ft 385 kts 248°
2026-05-03 21:12 59.17564 21.65250 35886 ft 385 kts 248°
2026-05-03 21:12 59.15176 21.55919 35889 ft 384 kts 248°
2026-05-03 21:13 59.12785 21.46611 35887 ft 384 kts 248°
2026-05-03 21:13 59.10384 21.37323 35889 ft 384 kts 247°
2026-05-03 21:14 59.07969 21.28049 35883 ft 384 kts 247°
2026-05-03 21:14 59.05000 21.19377 35882 ft 395 kts 230°
2026-05-03 21:15 59.02830 21.16007 35888 ft 405 kts 219°
2026-05-03 21:15 59.00305 21.13612 35883 ft 417 kts 207°
2026-05-03 21:15 58.94766 21.10064 35885 ft 419 kts 206°
2026-05-03 21:16 58.89228 21.06518 35885 ft 419 kts 206°
2026-05-03 21:16 58.83686 21.02960 35881 ft 420 kts 206°
2026-05-03 21:17 58.79085 21.00008 35882 ft 420 kts 206°
2026-05-03 21:17 58.72605 20.95876 35883 ft 420 kts 206°
2026-05-03 21:18 58.67053 20.92365 35882 ft 420 kts 206°
2026-05-03 21:18 58.61548 20.88882 35883 ft 419 kts 206°
2026-05-03 21:19 58.56002 20.85379 35880 ft 419 kts 206°
2026-05-03 21:19 58.50460 20.81896 35880 ft 419 kts 206°
2026-05-03 21:20 58.44920 20.78434 35879 ft 419 kts 206°
2026-05-03 21:20 58.39371 20.74982 35877 ft 419 kts 205°
2026-05-03 21:21 58.33832 20.71543 35876 ft 419 kts 205°
2026-05-03 21:21 58.28291 20.68102 35878 ft 419 kts 205°
2026-05-03 21:22 58.22753 20.64682 35878 ft 419 kts 205°
2026-05-03 21:22 58.17246 20.61306 35871 ft 419 kts 205°
2026-05-03 21:23 58.11700 20.57909 35871 ft 419 kts 205°
2026-05-03 21:23 58.06165 20.54517 35869 ft 419 kts 205°
2026-05-03 21:24 58.00619 20.51141 35867 ft 418 kts 205°
2026-05-03 21:24 57.96013 20.48347 35880 ft 418 kts 205°
2026-05-03 21:25 57.90472 20.44979 35868 ft 418 kts 205°
2026-05-03 21:25 57.84034 20.41092 35869 ft 418 kts 205°
2026-05-03 21:26 57.79394 20.38305 35867 ft 418 kts 204°
2026-05-03 21:26 57.73846 20.34987 35870 ft 418 kts 204°
2026-05-03 21:27 57.68342 20.31707 35870 ft 418 kts 204°
2026-05-03 21:27 57.62801 20.28400 35870 ft 418 kts 204°
2026-05-03 21:28 57.57259 20.25086 35866 ft 418 kts 204°
2026-05-03 21:28 57.51704 20.21790 35865 ft 419 kts 204°
2026-05-03 21:29 57.46145 20.18504 35870 ft 420 kts 204°
2026-05-03 21:29 57.43360 20.16865 36104 ft 420 kts 204°
2026-05-03 21:29 57.40581 20.15233 36384 ft 419 kts 204°
2026-05-03 21:30 57.37803 20.13605 36647 ft 419 kts 204°
2026-05-03 21:30 57.35023 20.11979 36832 ft 419 kts 204°
2026-05-03 21:30 57.29524 20.08770 36869 ft 416 kts 203°
2026-05-03 21:31 57.24009 20.05545 36868 ft 416 kts 203°
2026-05-03 21:31 57.18488 20.02325 36872 ft 416 kts 203°
2026-05-03 21:32 57.12973 19.99125 36881 ft 416 kts 203°
2026-05-03 21:32 57.07450 19.95951 36868 ft 416 kts 203°
2026-05-03 21:33 57.01906 19.92889 36866 ft 419 kts 198°
2026-05-03 21:33 56.98996 19.92175 36870 ft 426 kts 187°
2026-05-03 21:33 56.96012 19.92418 36867 ft 433 kts 179°
2026-05-03 21:34 56.90065 19.93644 36863 ft 433 kts 179°
2026-05-03 21:34 56.84080 19.94835 36876 ft 432 kts 180°
2026-05-03 21:35 56.78100 19.95994 36874 ft 432 kts 179°
2026-05-03 21:35 56.72116 19.97155 36876 ft 432 kts 179°
2026-05-03 21:36 56.66135 19.98318 36866 ft 432 kts 179°
2026-05-03 21:36 56.60157 19.99479 36872 ft 432 kts 179°
2026-05-03 21:37 56.54215 20.00629 36874 ft 432 kts 179°
2026-05-03 21:37 56.48239 20.01784 36873 ft 432 kts 179°
2026-05-03 21:38 56.42257 20.02937 36877 ft 432 kts 179°
2026-05-03 21:38 56.36276 20.04085 36881 ft 432 kts 179°
2026-05-03 21:39 56.30296 20.05223 36879 ft 432 kts 179°
2026-05-03 21:39 56.24316 20.06365 36876 ft 432 kts 179°
2026-05-03 21:40 56.18378 20.07513 36883 ft 432 kts 179°
2026-05-03 21:40 56.12445 20.09590 36880 ft 441 kts 165°
2026-05-03 21:41 56.06652 20.13328 36880 ft 443 kts 165°
2026-05-03 21:41 56.00849 20.17057 36879 ft 444 kts 165°
2026-05-03 21:42 55.95028 20.20762 36883 ft 445 kts 165°
2026-05-03 21:42 55.89205 20.24465 36884 ft 445 kts 165°
2026-05-03 21:43 55.86282 20.26320 36478 ft 448 kts 165°
2026-05-03 21:43 55.83309 20.28200 35334 ft 459 kts 165°
2026-05-03 21:43 55.80276 20.30112 34418 ft 461 kts 164°
2026-05-03 21:43 55.77302 20.32001 34087 ft 449 kts 164°
2026-05-03 21:44 55.74375 20.33863 33498 ft 446 kts 164°
2026-05-03 21:44 55.71495 20.35685 32719 ft 447 kts 164°
2026-05-03 21:44 55.68556 20.37536 31942 ft 447 kts 164°
2026-05-03 21:44 55.65621 20.39377 31230 ft 447 kts 164°
2026-05-03 21:45 55.62692 20.41208 30522 ft 446 kts 163°
2026-05-03 21:45 55.59771 20.43032 29818 ft 445 kts 163°
2026-05-03 21:45 55.56853 20.44853 29025 ft 444 kts 163°
2026-05-03 21:45 55.53941 20.46665 28244 ft 443 kts 163°
2026-05-03 21:46 55.51038 20.48472 27494 ft 441 kts 163°
2026-05-03 21:46 55.48149 20.50271 26766 ft 440 kts 163°
2026-05-03 21:46 55.45273 20.52057 26051 ft 438 kts 163°
2026-05-03 21:46 55.42405 20.53834 25362 ft 436 kts 163°
2026-05-03 21:47 55.39502 20.55219 24677 ft 429 kts 174°
2026-05-03 21:47 55.36544 20.55598 24018 ft 425 kts 180°
2026-05-03 21:47 55.33627 20.56381 23341 ft 428 kts 166°
2026-05-03 21:47 55.30926 20.58616 22580 ft 433 kts 148°
2026-05-03 21:48 55.28750 20.62168 21971 ft 435 kts 130°
2026-05-03 21:48 55.27081 20.66400 21811 ft 416 kts 127°
2026-05-03 21:48 55.25498 20.70440 21427 ft 403 kts 127°
2026-05-03 21:48 55.23908 20.74431 20818 ft 396 kts 128°
2026-05-03 21:49 55.22327 20.78354 20155 ft 392 kts 128°
2026-05-03 21:49 55.20762 20.82219 19508 ft 388 kts 129°
2026-05-03 21:49 55.19232 20.86006 19305 ft 371 kts 129°
2026-05-03 21:49 55.17784 20.89615 19180 ft 352 kts 129°
2026-05-03 21:50 55.16502 20.93148 19055 ft 338 kts 118°
2026-05-03 21:50 55.15629 20.96888 18883 ft 326 kts 115°
2026-05-03 21:50 55.14810 21.00537 18522 ft 320 kts 115°
2026-05-03 21:50 55.13998 21.04140 18081 ft 316 kts 115°
2026-05-03 21:51 55.13144 21.07647 17472 ft 313 kts 123°
2026-05-03 21:51 55.11867 21.10653 16725 ft 310 kts 140°
2026-05-03 21:51 55.10237 21.13034 16174 ft 304 kts 147°
2026-05-03 21:51 55.08585 21.15309 15625 ft 302 kts 146°
2026-05-03 21:52 55.06943 21.17577 15066 ft 300 kts 146°
2026-05-03 21:52 55.05279 21.19733 14531 ft 295 kts 155°
2026-05-03 21:52 55.03418 21.21053 14005 ft 285 kts 172°
2026-05-03 21:52 55.01482 21.21592 13460 ft 281 kts 177°
2026-05-03 21:53 54.99546 21.22078 12876 ft 280 kts 177°
2026-05-03 21:53 54.97626 21.22569 12312 ft 278 kts 176°
2026-05-03 21:53 54.95716 21.23052 11783 ft 275 kts 179°
2026-05-03 21:53 54.93850 21.22915 11262 ft 264 kts 197°
2026-05-03 21:54 54.92155 21.21903 10831 ft 253 kts 211°
2026-05-03 21:54 54.90783 21.20046 10182 ft 250 kts 234°
2026-05-03 21:54 54.90022 21.17417 9691 ft 243 kts 260°
2026-05-03 21:54 54.90134 21.14570 9158 ft 242 kts 288°
2026-05-03 21:55 54.91102 21.12186 8616 ft 248 kts 318°
2026-05-03 21:55 54.92681 21.10991 8181 ft 253 kts 348°
2026-05-03 21:55 54.94432 21.11348 7749 ft 258 kts 19°
2026-05-03 21:55 54.95874 21.13190 7321 ft 261 kts 51°
2026-05-03 21:56 54.96610 21.16017 6910 ft 257 kts 83°
2026-05-03 21:56 54.96447 21.19031 6496 ft 248 kts 116°
2026-05-03 21:56 54.95472 21.21355 6081 ft 233 kts 149°
2026-05-03 21:56 54.94040 21.22429 5657 ft 220 kts 175°
2026-05-03 21:57 54.92557 21.22478 5239 ft 209 kts 198°
2026-05-03 21:57 54.91283 21.21426 4915 ft 197 kts 222°
2026-05-03 21:57 54.90442 21.19593 4481 ft 194 kts 245°
2026-05-03 21:57 54.90169 21.17333 4192 ft 189 kts 269°
2026-05-03 21:58 54.90458 21.15141 4067 ft 188 kts 288°
2026-05-03 21:58 54.90939 21.13105 3947 ft 180 kts 287°
2026-05-03 21:58 54.91403 21.11128 3818 ft 169 kts 287°
2026-05-03 21:58 54.91847 21.09221 3712 ft 184 kts 287°
2026-05-03 21:59 54.92342 21.07075 3586 ft 194 kts 287°
2026-05-03 21:59 54.92850 21.04897 3461 ft 195 kts 287°
2026-05-03 21:59 54.93359 21.02718 3345 ft 194 kts 287°
2026-05-03 21:59 54.93864 21.00538 3224 ft 194 kts 287°
2026-05-03 22:00 54.94369 20.98349 3096 ft 195 kts 288°
2026-05-03 22:00 54.94874 20.96169 2974 ft 195 kts 288°
2026-05-03 22:00 54.95383 20.93974 2846 ft 195 kts 288°
2026-05-03 22:00 54.95893 20.91784 2731 ft 195 kts 288°
2026-05-03 22:01 54.96273 20.89599 2595 ft 182 kts 274°
2026-05-03 22:01 54.96200 20.87477 2475 ft 174 kts 256°
2026-05-03 22:01 54.95763 20.85547 2350 ft 169 kts 246°
2026-05-03 22:01 54.95295 20.83713 2226 ft 164 kts 246°
2026-05-03 22:02 54.94835 20.81910 2117 ft 162 kts 246°
2026-05-03 22:02 54.94378 20.80124 2052 ft 162 kts 246°
2026-05-03 22:02 54.93922 20.78345 1963 ft 158 kts 246°
2026-05-03 22:02 54.93495 20.76680 1810 ft 143 kts 246°
2026-05-03 22:03 54.93105 20.75161 1642 ft 134 kts 246°
2026-05-03 22:03 54.92729 20.73699 1471 ft 131 kts 246°
2026-05-03 22:03 54.92357 20.72254 1305 ft 130 kts 245°
2026-05-03 22:03 54.91994 20.70842 1133 ft 129 kts 246°
2026-05-03 22:04 54.91627 20.69415 967 ft 130 kts 245°
2026-05-03 22:04 54.91262 20.67970 767 ft 131 kts 246°
2026-05-03 22:04 54.90899 20.66509 595 ft 133 kts 245°
2026-05-03 22:04 54.90511 20.65056 398 ft 132 kts 245°
2026-05-03 22:05 54.90139 20.63588 238 ft 133 kts 244°
2026-05-03 22:05 54.89754 20.62134 84 ft 133 kts 245°
2026-05-03 22:05 54.89402 20.60784 21 ft 103 kts 245°
2026-05-03 22:05 54.89181 20.59917 21 ft 54 kts 246°
2026-05-03 22:06 54.89067 20.59477 26 ft 36 kts 246°
2026-05-03 22:06 54.88987 20.59219 25 ft 17 kts 234°
2026-05-03 22:06 54.88897 20.59106 25 ft 16 kts 207°
2026-05-03 22:06 54.88801 20.59021 30 ft 15 kts 207°
2026-05-03 22:07 54.88721 20.58944 26 ft 9 kts 214°
2026-05-03 22:07 54.88694 20.58852 26 ft 9 kts 246°
2026-05-03 22:07 54.88669 20.58763 26 ft 8 kts 218°
2026-05-03 22:07 54.88619 20.58769 27 ft 7 kts 155°
2026-05-03 22:08 54.88571 20.58806 27 ft 8 kts 156°
2026-05-03 22:08 54.88523 20.58808 27 ft 7 kts 220°
2026-05-03 22:08 54.88503 20.58731 27 ft 7 kts 244°
2026-05-03 22:08 54.88481 20.58651 27 ft 8 kts 244°
2026-05-03 22:09 54.88457 20.58569 27 ft 6 kts 232°
2026-05-03 22:09 54.88425 20.58564 27 ft 1 kts 167°
2026-05-03 22:09 54.88410 20.58576 27 ft 4 kts 149°
2026-05-03 22:10 54.88397 20.58588 27 ft 0 kts 153°